| time (UTC) | temp F | wind direction | speed MPH | gust MPH | rain 1hr in | rain 24hr in | rain mn in | humidity % | barometer mb |
| 20260509231015 | 92 | 340 | 1.0 | 10.0 | 0.00 | 0.00 | 0.00 | 10 | 1002.9 |
| 20260509230513 | 92 | 98 | 3.0 | 10.0 | 0.00 | 0.00 | 0.00 | 10 | 1003.0 |
| 20260509230013 | 92 | 94 | 4.0 | 9.0 | 0.00 | 0.00 | 0.00 | 10 | 1002.9 |
| 20260509225512 | 92 | 97 | 4.0 | 9.0 | 0.00 | 0.00 | 0.00 | 11 | 1003.0 |
| 20260509225112 | 92 | 20 | 1.0 | 9.0 | 0.00 | 0.00 | 0.00 | 11 | 1003.0 |
| 20260509224511 | 92 | 43 | 3.0 | 6.0 | 0.00 | 0.00 | 0.00 | 11 | 1003.0 |
| 20260509224010 | 92 | 28 | 3.0 | 10.0 | 0.00 | 0.00 | 0.00 | 11 | 1003.2 |
| 20260509223509 | 92 | 20 | 6.0 | 10.0 | 0.00 | 0.00 | 0.00 | 10 | 1003.3 |
| 20260509223008 | 92 | 17 | 4.0 | 9.0 | 0.00 | 0.00 | 0.00 | 10 | 1003.4 |
| 20260509222508 | 91 | 119 | 0.0 | 9.0 | 0.00 | 0.00 | 0.00 | 11 | 1003.4 |
| 20260509222007 | 92 | 67 | 5.0 | 9.0 | 0.00 | 0.00 | 0.00 | 11 | 1003.6 |
| 20260509221506 | 91 | 49 | 2.0 | 7.0 | 0.00 | 0.00 | 0.00 | 11 | 1003.6 |
| 20260509221005 | 92 | 96 | 3.0 | 7.0 | 0.00 | 0.00 | 0.00 | 10 | 1003.8 |
| 20260509220503 | 92 | 51 | 1.0 | 8.0 | 0.00 | 0.00 | 0.00 | 10 | 1003.9 |
| 20260509220003 | 92 | 174 | 0.0 | 11.0 | 0.00 | 0.00 | 0.00 | 11 | 1003.9 |
| 20260509215503 | 92 | 151 | 5.0 | 11.0 | 0.00 | 0.00 | 0.00 | 10 | 1004.1 |
| 20260509215003 | 92 | 134 | 4.0 | 11.0 | 0.00 | 0.00 | 0.00 | 10 | 1004.1 |
| 20260509214502 | 92 | 60 | 4.0 | 11.0 | 0.00 | 0.00 | 0.00 | 11 | 1004.2 |
| 20260509214005 | 92 | 117 | 2.0 | 9.0 | 0.00 | 0.00 | 0.00 | 11 | 1004.3 |
| 20260509213501 | 92 | 63 | 3.0 | 9.0 | 0.00 | 0.00 | 0.00 | 11 | 1004.3 |
| 20260509213001 | 92 | 44 | 4.0 | 8.0 | 0.00 | 0.00 | 0.00 | 11 | 1004.3 |
| 20260509212600 | 92 | 5 | 3.0 | 9.0 | 0.00 | 0.00 | 0.00 | 11 | 1004.4 |
| 20260509212059 | 92 | 360 | 2.0 | 9.0 | 0.00 | 0.00 | 0.00 | 11 | 1004.5 |
| 20260509211601 | 91 | 73 | 2.0 | 7.0 | 0.00 | 0.00 | 0.00 | 11 | 1004.6 |
| 20260509211101 | 91 | 178 | 0.0 | 8.0 | 0.00 | 0.00 | 0.00 | 11 | 1004.7 |
| 20260509210557 | 91 | 159 | 3.0 | 9.0 | 0.00 | 0.00 | 0.00 | 11 | 1004.8 |
| 20260509210114 | 91 | 148 | 3.0 | 8.0 | 0.00 | 0.00 | 0.00 | 11 | 1004.8 |
| 20260509205556 | 91 | 163 | 4.0 | 8.0 | 0.00 | 0.00 | 0.00 | 11 | 1004.9 |
| 20260509205056 | 91 | 80 | 2.0 | 5.0 | 0.00 | 0.00 | 0.00 | 11 | 1005.0 |
| 20260509204559 | 90 | 351 | 3.0 | 6.0 | 0.00 | 0.00 | 0.00 | 11 | 1005.0 |
| 20260509204056 | 90 | 13 | 2.0 | 6.0 | 0.00 | 0.00 | 0.00 | 11 | 1005.0 |
| 20260509203555 | 90 | 9 | 2.0 | 10.0 | 0.00 | 0.00 | 0.00 | 11 | 1005.1 |
| 20260509203056 | 90 | 76 | 6.0 | 10.0 | 0.00 | 0.00 | 0.00 | 11 | 1005.2 |
| 20260509202555 | 90 | 94 | 4.0 | 7.0 | 0.00 | 0.00 | 0.00 | 11 | 1005.2 |
| 20260509202055 | 90 | 95 | 2.0 | 11.0 | 0.00 | 0.00 | 0.00 | 11 | 1005.2 |
| 20260509201601 | 90 | 77 | 5.0 | 11.0 | 0.00 | 0.00 | 0.00 | 11 | 1005.3 |
| 20260509201056 | 90 | 78 | 2.0 | 11.0 | 0.00 | 0.00 | 0.00 | 11 | 1005.4 |
| 20260509200554 | 90 | 138 | 5.0 | 11.0 | 0.00 | 0.00 | 0.00 | 11 | 1005.5 |
| 20260509200103 | 90 | 60 | 2.0 | 10.0 | 0.00 | 0.00 | 0.00 | 11 | 1005.4 |
| 20260509195554 | 90 | 82 | 4.0 | 8.0 | 0.00 | 0.00 | 0.00 | 11 | 1005.5 |
| 20260509195053 | 90 | 329 | 1.0 | 7.0 | 0.00 | 0.00 | 0.00 | 11 | 1005.5 |
| 20260509194555 | 90 | 53 | 1.0 | 9.0 | 0.00 | 0.00 | 0.00 | 12 | 1005.6 |
| 20260509194053 | 90 | 56 | 2.0 | 10.0 | 0.00 | 0.00 | 0.00 | 11 | 1005.7 |
| 20260509193553 | 90 | 154 | 4.0 | 10.0 | 0.00 | 0.00 | 0.00 | 11 | 1005.7 |
| 20260509193052 | 90 | 173 | 2.0 | 7.0 | 0.00 | 0.00 | 0.00 | 11 | 1005.7 |
| 20260509192555 | 90 | 102 | 2.0 | 7.0 | 0.00 | 0.00 | 0.00 | 11 | 1005.8 |
| 20260509192052 | 89 | 26 | 2.0 | 9.0 | 0.00 | 0.00 | 0.00 | 11 | 1005.8 |
| 20260509191556 | 90 | 134 | 4.0 | 9.0 | 0.00 | 0.00 | 0.00 | 11 | 1005.9 |
| 20260509191055 | 90 | 61 | 3.0 | 8.0 | 0.00 | 0.00 | 0.00 | 11 | 1005.9 |
| 20260509190552 | 90 | 32 | 2.0 | 8.0 | 0.00 | 0.00 | 0.00 | 11 | 1006.0 |
| 20260509190104 | 90 | 336 | 4.0 | 8.0 | 0.00 | 0.00 | 0.00 | 11 | 1006.0 |
| 20260509185549 | 89 | 58 | 2.0 | 10.0 | 0.00 | 0.00 | 0.00 | 12 | 1006.1 |
| 20260509185048 | 89 | 30 | 6.0 | 10.0 | 0.00 | 0.00 | 0.00 | 12 | 1006.1 |
| 20260509184548 | 89 | 20 | 2.0 | 7.0 | 0.00 | 0.00 | 0.00 | 11 | 1006.1 |
| 20260509184048 | 89 | 12 | 2.0 | 7.0 | 0.00 | 0.00 | 0.00 | 11 | 1006.1 |
| 20260509183548 | 89 | 81 | 1.0 | 9.0 | 0.00 | 0.00 | 0.00 | 12 | 1006.2 |
| 20260509183048 | 88 | 59 | 5.0 | 9.0 | 0.00 | 0.00 | 0.00 | 12 | 1006.2 |
| 20260509182548 | 88 | 5 | 2.0 | 10.0 | 0.00 | 0.00 | 0.00 | 12 | 1006.3 |
| 20260509182047 | 88 | 165 | 4.0 | 10.0 | 0.00 | 0.00 | 0.00 | 11 | 1006.3 |
| 20260509181548 | 89 | 46 | 4.0 | 11.0 | 0.00 | 0.00 | 0.00 | 12 | 1006.4 |
| 20260509181047 | 89 | 13 | 5.0 | 12.0 | 0.00 | 0.00 | 0.00 | 11 | 1006.3 |
| 20260509180546 | 88 | 5 | 2.0 | 12.0 | 0.00 | 0.00 | 0.00 | 12 | 1006.3 |
| 20260509180051 | 89 | 98 | 5.0 | 11.0 | 0.00 | 0.00 | 0.00 | 12 | 1006.2 |
| 20260509175545 | 89 | 94 | 5.0 | 8.0 | 0.00 | 0.00 | 0.00 | 12 | 1006.2 |
| 20260509175044 | 88 | 126 | 1.0 | 9.0 | 0.00 | 0.00 | 0.00 | 12 | 1006.3 |
| 20260509174545 | 87 | 146 | 3.0 | 9.0 | 0.00 | 0.00 | 0.00 | 12 | 1006.3 |
| 20260509174043 | 88 | 79 | 3.0 | 7.0 | 0.00 | 0.00 | 0.00 | 12 | 1006.4 |
| 20260509173542 | 88 | 124 | 2.0 | 8.0 | 0.00 | 0.00 | 0.00 | 13 | 1006.3 |
| 20260509173042 | 88 | 42 | 3.0 | 8.0 | 0.00 | 0.00 | 0.00 | 13 | 1006.3 |
| 20260509172542 | 88 | 65 | 1.0 | 4.0 | 0.00 | 0.00 | 0.00 | 13 | 1006.3 |
| 20260509172041 | 87 | 68 | 1.0 | 6.0 | 0.00 | 0.00 | 0.00 | 13 | 1006.3 |
| 20260509171545 | 87 | 31 | 2.0 | 6.0 | 0.00 | 0.00 | 0.00 | 13 | 1006.3 |
| 20260509171039 | 87 | 90 | 1.0 | 5.0 | 0.00 | 0.00 | 0.00 | 14 | 1006.2 |
| 20260509170537 | 86 | 67 | 0.0 | 6.0 | 0.00 | 0.00 | 0.00 | 14 | 1006.3 |
| 20260509170037 | 86 | 55 | 2.0 | 6.0 | 0.00 | 0.00 | 0.00 | 14 | 1006.2 |
| 20260509165536 | 86 | 134 | 1.0 | 4.0 | 0.00 | 0.00 | 0.00 | 14 | 1006.2 |
| 20260509165041 | 86 | 134 | 1.0 | 3.0 | 0.00 | 0.00 | 0.00 | 15 | 1006.3 |
| 20260509164546 | 85 | 136 | 0.0 | 5.0 | 0.00 | 0.00 | 0.00 | 15 | 1006.3 |
| 20260509164035 | 85 | 136 | 2.0 | 5.0 | 0.00 | 0.00 | 0.00 | 16 | 1006.3 |
| 20260509163537 | 85 | 121 | 1.0 | 4.0 | 0.00 | 0.00 | 0.00 | 15 | 1006.2 |
| 20260509163036 | 85 | 121 | 0.0 | 6.0 | 0.00 | 0.00 | 0.00 | 15 | 1006.2 |
| 20260509162533 | 85 | 120 | 1.0 | 6.0 | 0.00 | 0.00 | 0.00 | 15 | 1006.2 |
| 20260509162033 | 84 | 114 | 0.0 | 6.0 | 0.00 | 0.00 | 0.00 | 15 | 1006.2 |
| 20260509161535 | 84 | 114 | 2.0 | 6.0 | 0.00 | 0.00 | 0.00 | 15 | 1006.2 |
| 20260509161031 | 84 | 113 | 1.0 | 6.0 | 0.00 | 0.00 | 0.00 | 16 | 1006.2 |
| 20260509160530 | 83 | 106 | 1.0 | 5.0 | 0.00 | 0.00 | 0.00 | 16 | 1006.1 |
| 20260509160030 | 83 | 142 | 3.0 | 5.0 | 0.00 | 0.00 | 0.00 | 15 | 1006.1 |
| 20260509155529 | 83 | 140 | 1.0 | 5.0 | 0.00 | 0.00 | 0.00 | 16 | 1006.2 |
| 20260509155030 | 83 | 126 | 1.0 | 5.0 | 0.00 | 0.00 | 0.00 | 17 | 1006.1 |
| 20260509154529 | 83 | 128 | 1.0 | 6.0 | 0.00 | 0.00 | 0.00 | 17 | 1006.0 |
| 20260509154029 | 83 | 94 | 2.0 | 7.0 | 0.00 | 0.00 | 0.00 | 18 | 1006.0 |
| 20260509153529 | 83 | 108 | 3.0 | 7.0 | 0.00 | 0.00 | 0.00 | 19 | 1006.0 |
| 20260509153029 | 83 | 73 | 1.0 | 4.0 | 0.00 | 0.00 | 0.00 | 19 | 1006.0 |
| 20260509152529 | 83 | 67 | 2.0 | 5.0 | 0.00 | 0.00 | 0.00 | 20 | 1006.1 |
| 20260509152029 | 83 | 96 | 2.0 | 4.0 | 0.00 | 0.00 | 0.00 | 19 | 1006.1 |
| 20260509151529 | 82 | 105 | 2.0 | 4.0 | 0.00 | 0.00 | 0.00 | 19 | 1006.1 |
| 20260509151028 | 82 | 188 | 0.0 | 3.0 | 0.00 | 0.00 | 0.00 | 21 | 1006.1 |
| 20260509150528 | 83 | 224 | 0.0 | 4.0 | 0.00 | 0.00 | 0.00 | 22 | 1006.1 |
| 20260509150034 | 84 | 230 | 1.0 | 4.0 | 0.00 | 0.00 | 0.00 | 20 | 1006.1 |
| 20260509145526 | 83 | 240 | 0.0 | 2.0 | 0.00 | 0.00 | 0.00 | 15 | 1005.9 |
| 20260509145023 | 83 | 240 | 0.0 | 0.0 | 0.00 | 0.00 | 0.00 | 16 | 1005.8 |
| 20260509144531 | 82 | 240 | 0.0 | 2.0 | 0.00 | 0.00 | 0.00 | 18 | 1005.9 |
| 20260509144023 | 82 | 240 | 0.0 | 2.0 | 0.00 | 0.00 | 0.00 | 19 | 1005.9 |
| 20260509143523 | 82 | 240 | 0.0 | 1.0 | 0.00 | 0.00 | 0.00 | 17 | 1005.9 |
| 20260509143023 | 81 | 240 | 0.0 | 1.0 | 0.00 | 0.00 | 0.00 | 18 | 1006.0 |
| 20260509142522 | 81 | 240 | 0.0 | 1.0 | 0.00 | 0.00 | 0.00 | 17 | 1006.0 |
| 20260509142022 | 81 | 240 | 0.0 | 1.0 | 0.00 | 0.00 | 0.00 | 17 | 1005.9 |
| 20260509141523 | 80 | 240 | 0.0 | 1.0 | 0.00 | 0.00 | 0.00 | 18 | 1005.8 |
| 20260509141022 | 80 | 241 | 0.0 | 2.0 | 0.00 | 0.00 | 0.00 | 18 | 1005.8 |
| 20260509140520 | 79 | 241 | 0.0 | 4.0 | 0.00 | 0.00 | 0.00 | 17 | 1005.8 |
| 20260509140020 | 78 | 241 | 1.0 | 5.0 | 0.00 | 0.00 | 0.00 | 17 | 1005.8 |
| 20260509135519 | 78 | 242 | 1.0 | 4.0 | 0.00 | 0.00 | 0.00 | 17 | 1005.7 |
| 20260509135021 | 77 | 242 | 0.0 | 5.0 | 0.00 | 0.00 | 0.00 | 18 | 1005.6 |
| 20260509134518 | 77 | 242 | 1.0 | 5.0 | 0.00 | 0.00 | 0.00 | 17 | 1005.5 |
| 20260509134117 | 77 | 268 | 1.0 | 2.0 | 0.00 | 0.00 | 0.00 | 17 | 1005.5 |
| 20260509133516 | 77 | 269 | 0.0 | 2.0 | 0.00 | 0.00 | 0.00 | 17 | 1005.4 |
| 20260509133016 | 76 | 269 | 0.0 | 2.0 | 0.00 | 0.00 | 0.00 | 17 | 1005.2 |
| 20260509132518 | 76 | 269 | 0.0 | 0.0 | 0.00 | 0.00 | 0.00 | 18 | 1005.1 |
| 20260509132014 | 76 | 269 | 0.0 | 0.0 | 0.00 | 0.00 | 0.00 | 17 | 1005.1 |
| 20260509131519 | 76 | 269 | 0.0 | 2.0 | 0.00 | 0.00 | 0.00 | 17 | 1005.0 |
| 20260509131013 | 76 | 269 | 0.0 | 2.0 | 0.00 | 0.00 | 0.00 | 17 | 1005.0 |
| 20260509130512 | 76 | 269 | 1.0 | 2.0 | 0.00 | 0.00 | 0.00 | 17 | 1005.0 |
| 20260509130016 | 75 | 269 | 0.0 | 0.0 | 0.00 | 0.00 | 0.00 | 17 | 1004.9 |
| 20260509125511 | 75 | 269 | 0.0 | 2.0 | 0.00 | 0.00 | 0.00 | 17 | 1004.9 |
| 20260509125011 | 75 | 269 | 0.0 | 3.0 | 0.00 | 0.00 | 0.00 | 17 | 1004.8 |
| 20260509124510 | 75 | 269 | 0.0 | 2.0 | 0.00 | 0.00 | 0.00 | 17 | 1004.7 |
| 20260509124008 | 75 | 269 | 0.0 | 3.0 | 0.00 | 0.00 | 0.00 | 17 | 1004.6 |
| 20260509123508 | 75 | 269 | 1.0 | 6.0 | 0.00 | 0.00 | 0.00 | 17 | 1004.6 |
| 20260509123008 | 75 | 269 | 2.0 | 6.0 | 0.00 | 0.00 | 0.00 | 17 | 1004.5 |
| 20260509122507 | 74 | 269 | 1.0 | 3.0 | 0.00 | 0.00 | 0.00 | 17 | 1004.5 |
| 20260509122008 | 75 | 269 | 1.0 | 3.0 | 0.00 | 0.00 | 0.00 | 17 | 1004.4 |
| 20260509121514 | 75 | 269 | 0.0 | 2.0 | 0.00 | 0.00 | 0.00 | 17 | 1004.3 |
| 20260509121006 | 75 | 269 | 1.0 | 2.0 | 0.00 | 0.00 | 0.00 | 16 | 1004.3 |
| 20260509120507 | 75 | 269 | 1.0 | 2.0 | 0.00 | 0.00 | 0.00 | 16 | 1004.3 |
| 20260509120005 | 75 | 269 | 1.0 | 2.0 | 0.00 | 0.00 | 0.00 | 16 | 1004.2 |
| 20260509115504 | 75 | 269 | 0.0 | 2.0 | 0.00 | 0.00 | 0.00 | 17 | 1004.2 |
| 20260509115004 | 75 | 269 | 0.0 | 1.0 | 0.00 | 0.00 | 0.00 | 16 | 1004.2 |
| 20260509114507 | 75 | 269 | 0.0 | 4.0 | 0.00 | 0.00 | 0.00 | 16 | 1004.2 |
| 20260509114004 | 75 | 269 | 0.0 | 4.0 | 0.00 | 0.00 | 0.00 | 15 | 1004.3 |
| 20260509113503 | 75 | 269 | 1.0 | 3.0 | 0.00 | 0.00 | 0.00 | 15 | 1004.2 |
| 20260509113004 | 75 | 269 | 1.0 | 3.0 | 0.00 | 0.00 | 0.00 | 15 | 1004.3 |
| 20260509112504 | 75 | 269 | 1.0 | 4.0 | 0.00 | 0.00 | 0.00 | 16 | 1004.3 |
| 20260509112003 | 74 | 269 | 1.0 | 4.0 | 0.00 | 0.00 | 0.00 | 16 | 1004.3 |
| 20260509111503 | 74 | 269 | 0.0 | 4.0 | 0.00 | 0.00 | 0.00 | 16 | 1004.3 |
| 20260509111002 | 75 | 269 | 0.0 | 1.0 | 0.00 | 0.00 | 0.00 | 16 | 1004.3 |
| 20260509110500 | 77 | 269 | 0.0 | 2.0 | 0.00 | 0.00 | 0.00 | 15 | 1004.2 |
| 20260509110100 | 77 | 269 | 0.0 | 2.0 | 0.00 | 0.00 | 0.00 | 15 | 1004.2 |
| 20260509105604 | 75 | 269 | 0.0 | 2.0 | 0.00 | 0.00 | 0.00 | 16 | 1004.2 |
| 20260509105100 | 75 | 269 | 0.0 | 3.0 | 0.00 | 0.00 | 0.00 | 16 | 1004.1 |
| 20260509104600 | 75 | 269 | 1.0 | 3.0 | 0.00 | 0.00 | 0.00 | 16 | 1004.1 |
| 20260509104059 | 75 | 269 | 1.0 | 4.0 | 0.00 | 0.00 | 0.00 | 16 | 1004.0 |
| 20260509103558 | 75 | 269 | 1.0 | 4.0 | 0.00 | 0.00 | 0.00 | 16 | 1004.2 |
| 20260509103058 | 76 | 269 | 1.0 | 3.0 | 0.00 | 0.00 | 0.00 | 15 | 1004.1 |
| 20260509102557 | 76 | 269 | 0.0 | 2.0 | 0.00 | 0.00 | 0.00 | 15 | 1004.1 |
| 20260509102055 | 77 | 269 | 0.0 | 2.0 | 0.00 | 0.00 | 0.00 | 15 | 1004.1 |
| 20260509101559 | 77 | 269 | 0.0 | 2.0 | 0.00 | 0.00 | 0.00 | 15 | 1004.1 |
| 20260509101053 | 78 | 269 | 0.0 | 1.0 | 0.00 | 0.00 | 0.00 | 15 | 1004.1 |
| 20260509100552 | 78 | 269 | 0.0 | 2.0 | 0.00 | 0.00 | 0.00 | 15 | 1004.0 |
| 20260509100052 | 78 | 269 | 0.0 | 3.0 | 0.00 | 0.00 | 0.00 | 14 | 1004.1 |
| 20260509095551 | 78 | 269 | 1.0 | 6.0 | 0.00 | 0.00 | 0.00 | 14 | 1004.1 |
| 20260509095051 | 78 | 269 | 1.0 | 6.0 | 0.00 | 0.00 | 0.00 | 14 | 1004.1 |
| 20260509094551 | 78 | 264 | 2.0 | 8.0 | 0.00 | 0.00 | 0.00 | 14 | 1004.1 |
| 20260509094051 | 79 | 264 | 3.0 | 8.0 | 0.00 | 0.00 | 0.00 | 13 | 1004.0 |
| 20260509093552 | 80 | 267 | 2.0 | 12.0 | 0.00 | 0.00 | 0.00 | 13 | 1004.0 |
| 20260509093057 | 81 | 266 | 1.0 | 12.0 | 0.00 | 0.00 | 0.00 | 14 | 1004.0 |
| 20260509092550 | 81 | 261 | 2.0 | 10.0 | 0.00 | 0.00 | 0.00 | 14 | 1004.0 |
| 20260509092049 | 80 | 257 | 3.0 | 10.0 | 0.00 | 0.00 | 0.00 | 14 | 1003.9 |
| 20260509091552 | 78 | 267 | 2.0 | 9.0 | 0.00 | 0.00 | 0.00 | 14 | 1004.0 |
| 20260509091053 | 78 | 266 | 0.0 | 9.0 | 0.00 | 0.00 | 0.00 | 14 | 1004.1 |
| 20260509090550 | 77 | 265 | 1.0 | 8.0 | 0.00 | 0.00 | 0.00 | 14 | 1004.1 |
| 20260509090049 | 77 | 265 | 0.0 | 8.0 | 0.00 | 0.00 | 0.00 | 14 | 1004.1 |
| 20260509085546 | 77 | 267 | 2.0 | 7.0 | 0.00 | 0.00 | 0.00 | 14 | 1004.1 |
| 20260509085045 | 78 | 269 | 0.0 | 6.0 | 0.00 | 0.00 | 0.00 | 13 | 1004.1 |
| 20260509084548 | 79 | 269 | 1.0 | 6.0 | 0.00 | 0.00 | 0.00 | 13 | 1004.1 |
| 20260509084043 | 79 | 269 | 0.0 | 6.0 | 0.00 | 0.00 | 0.00 | 13 | 1004.1 |
| 20260509083543 | 80 | 269 | 0.0 | 6.0 | 0.00 | 0.00 | 0.00 | 13 | 1004.1 |
| 20260509083046 | 81 | 269 | 0.0 | 2.0 | 0.00 | 0.00 | 0.00 | 13 | 1004.1 |
| 20260509082540 | 81 | 269 | 0.0 | 3.0 | 0.00 | 0.00 | 0.00 | 13 | 1004.2 |
| 20260509082040 | 81 | 269 | 0.0 | 4.0 | 0.00 | 0.00 | 0.00 | 12 | 1004.2 |
| 20260509081543 | 82 | 269 | 0.0 | 6.0 | 0.00 | 0.00 | 0.00 | 13 | 1004.2 |
| 20260509081040 | 82 | 269 | 1.0 | 6.0 | 0.00 | 0.00 | 0.00 | 13 | 1004.2 |
| 20260509080539 | 82 | 269 | 0.0 | 7.0 | 0.00 | 0.00 | 0.00 | 13 | 1004.1 |
| 20260509080039 | 82 | 268 | 1.0 | 8.0 | 0.00 | 0.00 | 0.00 | 13 | 1004.1 |
| 20260509075538 | 82 | 265 | 3.0 | 8.0 | 0.00 | 0.00 | 0.00 | 13 | 1004.2 |
| 20260509075038 | 82 | 265 | 3.0 | 9.0 | 0.00 | 0.00 | 0.00 | 14 | 1004.2 |
| 20260509074544 | 82 | 264 | 4.0 | 8.0 | 0.00 | 0.00 | 0.00 | 14 | 1004.2 |
| 20260509074036 | 82 | 223 | 2.0 | 13.0 | 0.00 | 0.00 | 0.00 | 14 | 1004.3 |
| 20260509073536 | 82 | 265 | 2.0 | 7.0 | 0.00 | 0.00 | 0.00 | 14 | 1004.3 |
| 20260509073036 | 82 | 254 | 3.0 | 7.0 | 0.00 | 0.00 | 0.00 | 14 | 1004.2 |
| 20260509072536 | 81 | 249 | 3.0 | 7.0 | 0.00 | 0.00 | 0.00 | 14 | 1004.3 |
| 20260509072035 | 81 | 271 | 0.0 | 3.0 | 0.00 | 0.00 | 0.00 | 13 | 1004.3 |
| 20260509071535 | 82 | 271 | 0.0 | 2.0 | 0.00 | 0.00 | 0.00 | 12 | 1004.3 |
| 20260509071032 | 82 | 271 | 0.0 | 4.0 | 0.00 | 0.00 | 0.00 | 12 | 1004.3 |
| 20260509070533 | 82 | 271 | 0.0 | 4.0 | 0.00 | 0.00 | 0.00 | 12 | 1004.3 |
| 20260509070032 | 82 | 271 | 0.0 | 4.0 | 0.00 | 0.00 | 0.00 | 12 | 1004.2 |
| 20260509065530 | 82 | 271 | 1.0 | 3.0 | 0.00 | 0.00 | 0.00 | 12 | 1004.2 |
| 20260509065031 | 82 | 271 | 1.0 | 4.0 | 0.00 | 0.00 | 0.00 | 12 | 1004.3 |
| 20260509064535 | 83 | 271 | 1.0 | 4.0 | 0.00 | 0.00 | 0.00 | 12 | 1004.2 |
| 20260509064032 | 83 | 268 | 1.0 | 4.0 | 0.00 | 0.00 | 0.00 | 12 | 1004.2 |
| 20260509063530 | 83 | 267 | 1.0 | 3.0 | 0.00 | 0.00 | 0.00 | 11 | 1004.3 |
| 20260509063030 | 83 | 265 | 0.0 | 6.0 | 0.00 | 0.00 | 0.00 | 12 | 1004.3 |
| 20260509062532 | 84 | 265 | 1.0 | 10.0 | 0.00 | 0.00 | 0.00 | 12 | 1004.2 |
| 20260509062029 | 84 | 266 | 3.0 | 10.0 | 0.00 | 0.00 | 0.00 | 12 | 1004.2 |
| 20260509061529 | 84 | 267 | 1.0 | 6.0 | 0.00 | 0.00 | 0.00 | 12 | 1004.2 |
| 20260509061029 | 83 | 265 | 1.0 | 7.0 | 0.00 | 0.00 | 0.00 | 12 | 1004.2 |
| 20260509060530 | 83 | 265 | 2.0 | 7.0 | 0.00 | 0.00 | 0.00 | 12 | 1004.2 |
| 20260509060031 | 83 | 265 | 2.0 | 7.0 | 0.00 | 0.00 | 0.00 | 12 | 1004.1 |
| 20260509055529 | 83 | 265 | 2.0 | 6.0 | 0.00 | 0.00 | 0.00 | 12 | 1004.1 |
| 20260509055028 | 83 | 265 | 1.0 | 6.0 | 0.00 | 0.00 | 0.00 | 12 | 1004.2 |
| 20260509054528 | 83 | 265 | 1.0 | 9.0 | 0.00 | 0.00 | 0.00 | 12 | 1004.1 |
| 20260509054028 | 83 | 265 | 1.0 | 9.0 | 0.00 | 0.00 | 0.00 | 12 | 1004.2 |
| 20260509053528 | 83 | 268 | 1.0 | 4.0 | 0.00 | 0.00 | 0.00 | 12 | 1004.2 |
| 20260509053028 | 83 | 269 | 1.0 | 4.0 | 0.00 | 0.00 | 0.00 | 12 | 1004.2 |
| 20260509052528 | 83 | 269 | 1.0 | 6.0 | 0.00 | 0.00 | 0.00 | 12 | 1004.2 |
| 20260509052027 | 84 | 269 | 1.0 | 6.0 | 0.00 | 0.00 | 0.00 | 12 | 1004.2 |
| 20260509051534 | 84 | 269 | 1.0 | 4.0 | 0.00 | 0.00 | 0.00 | 12 | 1004.2 |
| 20260509051028 | 84 | 269 | 1.0 | 7.0 | 0.00 | 0.00 | 0.00 | 11 | 1004.2 |
| 20260509050529 | 84 | 269 | 1.0 | 7.0 | 0.00 | 0.00 | 0.00 | 11 | 1004.2 |
| 20260509050027 | 84 | 269 | 1.0 | 6.0 | 0.00 | 0.00 | 0.00 | 11 | 1004.1 |
| 20260509045526 | 84 | 269 | 1.0 | 6.0 | 0.00 | 0.00 | 0.00 | 11 | 1004.0 |
| 20260509045026 | 84 | 269 | 1.0 | 3.0 | 0.00 | 0.00 | 0.00 | 11 | 1004.1 |
| 20260509044527 | 84 | 269 | 1.0 | 4.0 | 0.00 | 0.00 | 0.00 | 12 | 1004.0 |
| 20260509044027 | 83 | 269 | 1.0 | 6.0 | 0.00 | 0.00 | 0.00 | 12 | 1004.1 |
| 20260509043526 | 84 | 269 | 1.0 | 6.0 | 0.00 | 0.00 | 0.00 | 12 | 1004.1 |
| 20260509043026 | 84 | 269 | 1.0 | 4.0 | 0.00 | 0.00 | 0.00 | 13 | 1004.0 |
| 20260509042526 | 84 | 269 | 1.0 | 6.0 | 0.00 | 0.00 | 0.00 | 13 | 1004.0 |
| 20260509042026 | 84 | 269 | 2.0 | 8.0 | 0.00 | 0.00 | 0.00 | 13 | 1003.9 |
| 20260509041526 | 84 | 268 | 2.0 | 8.0 | 0.00 | 0.00 | 0.00 | 13 | 1003.8 |
| 20260509041025 | 84 | 270 | 1.0 | 7.0 | 0.00 | 0.00 | 0.00 | 13 | 1003.8 |
| 20260509040625 | 84 | 270 | 1.0 | 6.0 | 0.00 | 0.00 | 0.00 | 13 | 1003.8 |
| 20260509040025 | 85 | 266 | 2.0 | 6.0 | 0.00 | 0.00 | 0.00 | 13 | 1003.7 |
| 20260509035528 | 85 | 266 | 2.0 | 7.0 | 0.00 | 0.00 | 0.00 | 13 | 1003.7 |
| 20260509035028 | 85 | 264 | 2.0 | 7.0 | 0.00 | 0.00 | 0.00 | 13 | 1003.7 |
| 20260509034539 | 85 | 265 | 2.0 | 7.0 | 0.00 | 0.00 | 0.00 | 13 | 1003.6 |
| 20260509034029 | 85 | 267 | 2.0 | 6.0 | 0.00 | 0.00 | 0.00 | 13 | 1003.6 |
| 20260509033525 | 86 | 267 | 2.0 | 8.0 | 0.00 | 0.00 | 0.00 | 13 | 1003.6 |
| 20260509033025 | 86 | 266 | 3.0 | 9.0 | 0.00 | 0.00 | 0.00 | 12 | 1003.6 |
| 20260509032525 | 86 | 267 | 3.0 | 9.0 | 0.00 | 0.00 | 0.00 | 12 | 1003.6 |
| 20260509032024 | 86 | 270 | 4.0 | 10.0 | 0.00 | 0.00 | 0.00 | 12 | 1003.6 |
| 20260509031524 | 87 | 273 | 3.0 | 10.0 | 0.00 | 0.00 | 0.00 | 12 | 1003.5 |
| 20260509031024 | 87 | 265 | 4.0 | 9.0 | 0.00 | 0.00 | 0.00 | 12 | 1003.5 |
| 20260509030524 | 87 | 271 | 3.0 | 9.0 | 0.00 | 0.00 | 0.00 | 12 | 1003.5 |
| 20260509030024 | 87 | 267 | 2.0 | 8.0 | 0.00 | 0.00 | 0.00 | 12 | 1003.4 |
| 20260509025523 | 87 | 265 | 2.0 | 9.0 | 0.00 | 0.00 | 0.00 | 11 | 1003.4 |
| 20260509025023 | 87 | 234 | 4.0 | 10.0 | 0.00 | 0.00 | 0.00 | 11 | 1003.3 |
| 20260509024523 | 87 | 263 | 2.0 | 10.0 | 0.00 | 0.00 | 0.00 | 11 | 1003.3 |
| 20260509024023 | 88 | 265 | 4.0 | 11.0 | 0.00 | 0.00 | 0.00 | 11 | 1003.2 |
| 20260509023523 | 88 | 277 | 7.0 | 11.0 | 0.00 | 0.00 | 0.00 | 11 | 1003.2 |
| 20260509023023 | 88 | 261 | 4.0 | 11.0 | 0.00 | 0.00 | 0.00 | 11 | 1003.1 |
| 20260509022522 | 88 | 267 | 5.0 | 12.0 | 0.00 | 0.00 | 0.00 | 11 | 1003.1 |
| 20260509022022 | 88 | 259 | 6.0 | 11.0 | 0.00 | 0.00 | 0.00 | 10 | 1003.0 |
| 20260509021523 | 88 | 256 | 3.0 | 9.0 | 0.00 | 0.00 | 0.00 | 10 | 1003.0 |
| 20260509021021 | 89 | 265 | 4.0 | 8.0 | 0.00 | 0.00 | 0.00 | 10 | 1003.0 |
| 20260509020521 | 89 | 206 | 2.0 | 8.0 | 0.00 | 0.00 | 0.00 | 10 | 1003.0 |
| 20260509020021 | 89 | 163 | 1.0 | 5.0 | 0.00 | 0.00 | 0.00 | 10 | 1003.0 |
| 20260509015522 | 89 | 159 | 1.0 | 5.0 | 0.00 | 0.00 | 0.00 | 10 | 1003.0 |
| 20260509015021 | 90 | 221 | 1.0 | 4.0 | 0.00 | 0.00 | 0.00 | 10 | 1003.0 |
| 20260509014521 | 90 | 72 | 0.0 | 2.0 | 0.00 | 0.00 | 0.00 | 9 | 1003.2 |
| 20260509014020 | 90 | 69 | 0.0 | 5.0 | 0.00 | 0.00 | 0.00 | 9 | 1003.1 |
| 20260509013524 | 90 | 69 | 3.0 | 5.0 | 0.00 | 0.00 | 0.00 | 9 | 1003.1 |
| 20260509013022 | 91 | 29 | 0.0 | 5.0 | 0.00 | 0.00 | 0.00 | 9 | 1003.0 |
| 20260509012520 | 91 | 19 | 1.0 | 8.0 | 0.00 | 0.00 | 0.00 | 9 | 1003.0 |
| 20260509012020 | 91 | 38 | 1.0 | 8.0 | 0.00 | 0.00 | 0.00 | 8 | 1003.0 |
| 20260509011520 | 91 | 38 | 4.0 | 8.0 | 0.00 | 0.00 | 0.00 | 9 | 1003.1 |
| 20260509011019 | 91 | 15 | 1.0 | 8.0 | 0.00 | 0.00 | 0.00 | 9 | 1003.1 |
| 20260509010517 | 91 | 9 | 4.0 | 10.0 | 0.00 | 0.00 | 0.00 | 9 | 1003.2 |
| 20260509010020 | 91 | 18 | 4.0 | 10.0 | 0.00 | 0.00 | 0.00 | 9 | 1003.2 |
| 20260509005517 | 91 | 48 | 3.0 | 10.0 | 0.00 | 0.00 | 0.00 | 9 | 1003.3 |
| 20260509005016 | 91 | 13 | 3.0 | 10.0 | 0.00 | 0.00 | 0.00 | 9 | 1003.2 |
| 20260509004519 | 92 | 51 | 5.0 | 10.0 | 0.00 | 0.00 | 0.00 | 9 | 1003.3 |
| 20260509004018 | 92 | 36 | 0.0 | 10.0 | 0.00 | 0.00 | 0.00 | 9 | 1003.3 |
| 20260509003518 | 92 | 30 | 4.0 | 10.0 | 0.00 | 0.00 | 0.00 | 9 | 1003.3 |
| 20260509003016 | 92 | 11 | 6.0 | 10.0 | 0.00 | 0.00 | 0.00 | 8 | 1003.4 |
| 20260509002515 | 92 | 30 | 4.0 | 9.0 | 0.00 | 0.00 | 0.00 | 8 | 1003.5 |
| 20260509002012 | 92 | 5 | 5.0 | 10.0 | 0.00 | 0.00 | 0.00 | 8 | 1003.5 |
| 20260509001512 | 92 | 34 | 3.0 | 12.0 | 0.00 | 0.00 | 0.00 | 8 | 1003.4 |
| 20260509001012 | 92 | 34 | 5.0 | 12.0 | 0.00 | 0.00 | 0.00 | 8 | 1003.5 |
| 20260509000511 | 92 | 13 | 5.0 | 9.0 | 0.00 | 0.00 | 0.00 | 8 | 1003.5 |
| 20260509000010 | 93 | 45 | 1.0 | 16.0 | 0.00 | 0.00 | 0.00 | 9 | 1003.5 |
| 20260508235511 | 93 | 360 | 6.0 | 16.0 | 0.00 | 0.00 | 0.00 | 8 | 1003.5 |
| 20260508235010 | 92 | 24 | 4.0 | 11.0 | 0.00 | 0.00 | 0.00 | 9 | 1003.4 |
| 20260508234509 | 92 | 19 | 7.0 | 15.0 | 0.00 | 0.00 | 0.00 | 8 | 1003.4 |
| 20260508234008 | 92 | 35 | 7.0 | 15.0 | 0.00 | 0.00 | 0.00 | 9 | 1003.5 |
| 20260508233508 | 92 | 32 | 5.0 | 14.0 | 0.00 | 0.00 | 0.00 | 9 | 1003.5 |
| 20260508233007 | 92 | 54 | 8.0 | 14.0 | 0.00 | 0.00 | 0.00 | 9 | 1003.5 |
| 20260508232506 | 92 | 131 | 6.0 | 16.0 | 0.00 | 0.00 | 0.00 | 9 | 1003.5 |
| 20260508232010 | 93 | 28 | 9.0 | 16.0 | 0.00 | 0.00 | 0.00 | 9 | 1003.6 |
| 20260508231508 | 92 | 91 | 5.0 | 9.0 | 0.00 | 0.00 | 0.00 | 10 | 1003.5 |